Location: Kawakawa
(35.3830°S, 174.0670°E)
Time: 21:49:58
(UTC+13:00)

Altair - Pass Details

Date: 07 December 2019
Orbit: 1502 x 1682 km, 47.2° (Epoch: 18 January)

Event Time Altitude Azimuth Distance (km) Brightness Sun altitude
Rises 18:46:39 0° 238° (WSW) 4,954 11.6 18.4°
Reaches altitude 10° 18:49:59 10° 243° (WSW) 3,963 11.8 17.7°
Maximum altitude 18:59:33 48° 313° (NW) 2,097 8.8 15.8°
Drops below altitude 10° 19:08:55 10° 23° (NNE) 3,867 9.3 14.0°
Sets 19:12:09 0° 28° (NNE) 4,826 9.7 13.4°
